Weather History for KOKV - April, 2014

Change the Weather History Date:

Tuesday, April 29, 2014

  Actual Average Record
Temperature  
Mean Temperature 46 °F -  
Max Temperature 48 °F 69 °F 85 °F (1983)
Min Temperature 44 °F 46 °F 35 °F (2006)
Degree Days  
Heating Degree Days 19    
Moisture  
Dew Point 46 °F    
Average Humidity 95    
Maximum Humidity 100    
Minimum Humidity 87    
Precipitation  
Precipitation 0.24 in - - ()
Sea Level Pressure  
Sea Level Pressure 30.11 in    
Wind  
Wind Speed 8 mph (East)    
Max Wind Speed 16 mph    
Max Gust Speed 20 mph    
Visibility 7 miles    
Events Rain    
Averages and records for this station are not official NWS values.
T = Trace of Precipitation, MM = Missing Value Source: NWS Daily Summary

Daily Weather History Graph

Daily Weather History Graph

Search for Another Location

Airport or City:

Trip Planner

Search our weather history database for the weather conditions in past years. The results will help you decide how hot, cold, wet, or windy it might be!

Date:

Astronomy

Apr. 29, 2014 Rise Set
Actual Time 6:16 AM EDT 8:03 PM EDT
Civil Twilight 5:48 AM EDT 8:32 PM EDT
Nautical Twilight 5:13 AM EDT 9:07 PM EDT
Astronomical Twilight 4:36 AM EDT 9:44 PM EDT
Moon 6:33 AM EDT (4/29) 8:41 PM EDT (4/29)
Length of Visible Light 14h 44m
Length of Day
13h 46m
New Moon, 0% of the Moon is Illuminated
Apr 29
New Moon
May 6
First Quarter
May 14
Full
May 21
Last Quarter
May 28
New

Hourly Weather History & Observations

Time (EDT) Temp. Windchill Dew Point Humidity Pressure Visibility Wind Dir Wind Speed Gust Speed Precip Events Conditions
12:15 AM 48.2 °F - 46.4 °F 93% 30.03 in 10.0 mi East 6.9 mph - N/A   Overcast
12:35 AM 48.2 °F - 46.4 °F 93% 30.04 in 10.0 mi East 5.8 mph - N/A   Overcast
12:55 AM 48.2 °F - 46.4 °F 93% 30.03 in 10.0 mi ESE 10.4 mph - N/A   Overcast
1:15 AM 48.2 °F - 46.4 °F 93% 30.04 in 10.0 mi ESE 5.8 mph - N/A   Overcast
1:35 AM 48.2 °F - 46.4 °F 93% 30.03 in 10.0 mi ESE 15.0 mph 19.6 mph N/A   Overcast
1:55 AM 48.2 °F - 46.4 °F 93% 30.04 in 10.0 mi ESE 9.2 mph - N/A   Overcast
2:15 AM 48.2 °F - 46.4 °F 93% 30.05 in 10.0 mi SE 8.1 mph - N/A   Overcast
2:35 AM 48.2 °F - 46.4 °F 93% 30.04 in 10.0 mi ESE 10.4 mph - N/A   Overcast
2:55 AM 48.2 °F - 46.4 °F 93% 30.04 in 10.0 mi ESE 9.2 mph - N/A   Overcast
3:15 AM 48.2 °F - 46.4 °F 93% 30.04 in 10.0 mi ESE 8.1 mph - N/A   Overcast
3:35 AM 48.2 °F - 46.4 °F 93% 30.05 in 10.0 mi SE 5.8 mph - N/A   Overcast
3:55 AM 48.2 °F - 46.4 °F 93% 30.04 in 10.0 mi ESE 8.1 mph - N/A   Overcast
4:15 AM 48.2 °F - 44.6 °F 87% 30.05 in 10.0 mi ESE 10.4 mph - N/A   Overcast
4:35 AM 48.2 °F - 44.6 °F 87% 30.05 in 10.0 mi ESE 6.9 mph - N/A   Overcast
4:55 AM 48.2 °F - 46.4 °F 93% 30.05 in 10.0 mi ESE 6.9 mph - N/A   Overcast
5:15 AM 46.4 °F 41.5 °F 44.6 °F 93% 30.05 in 10.0 mi ESE 10.4 mph 16.1 mph N/A   Overcast
5:35 AM 46.4 °F 41.5 °F 44.6 °F 93% 30.05 in 10.0 mi ESE 10.4 mph - N/A   Overcast
5:55 AM 46.4 °F 42.4 °F 44.6 °F 93% 30.06 in 10.0 mi ESE 8.1 mph - N/A   Overcast
6:15 AM 46.4 °F 42.4 °F 44.6 °F 93% 30.08 in 10.0 mi ESE 8.1 mph - N/A   Overcast
6:35 AM 46.4 °F 39.8 °F 42.8 °F 87% 30.09 in 10.0 mi ESE 16.1 mph 19.6 mph N/A   Overcast
6:55 AM 46.4 °F 40.4 °F 42.8 °F 87% 30.10 in 7.0 mi ESE 13.8 mph 19.6 mph N/A   Light Drizzle
7:15 AM 44.6 °F 39.2 °F 42.8 °F 93% 30.12 in 4.0 mi ESE 10.4 mph - N/A Rain Light Rain
7:35 AM 44.6 °F 40.7 °F 42.8 °F 93% 30.13 in 2.0 mi ESE 6.9 mph - 0.04 in Rain Rain
7:55 AM 44.6 °F 39.7 °F 42.8 °F 93% 30.13 in 7.0 mi ESE 9.2 mph - 0.07 in Rain Light Rain
8:15 AM 44.6 °F 40.7 °F 42.8 °F 93% 30.16 in 10.0 mi SE 6.9 mph - N/A Rain Light Rain
8:35 AM 44.6 °F 40.7 °F 42.8 °F 93% 30.13 in 7.0 mi East 6.9 mph - 0.01 in Rain Rain
8:55 AM 44.6 °F 39.7 °F 44.6 °F 100% 30.16 in 7.0 mi SE 9.2 mph - 0.02 in Rain Rain
9:15 AM 44.6 °F 39.7 °F 44.6 °F 100% 30.12 in 7.0 mi East 9.2 mph - N/A Rain Rain
9:35 AM 44.6 °F 40.7 °F 44.6 °F 100% 30.12 in 10.0 mi East 6.9 mph - 0.02 in Rain Rain
9:55 AM 46.4 °F 42.9 °F 44.6 °F 93% 30.10 in 10.0 mi East 6.9 mph - 0.03 in Rain Light Rain
10:15 AM 46.4 °F 42.9 °F 44.6 °F 93% 30.10 in 10.0 mi East 6.9 mph - N/A Rain Light Rain
10:35 AM 46.4 °F 43.5 °F 44.6 °F 93% 30.12 in 10.0 mi ESE 5.8 mph - N/A   Drizzle
10:55 AM 46.4 °F 45.2 °F 44.6 °F 93% 30.13 in 10.0 mi SSE 3.5 mph - N/A   Light Drizzle
11:15 AM 48.2 °F - 44.6 °F 87% 30.13 in 10.0 mi ESE 9.2 mph - N/A   Light Drizzle
11:35 AM 48.2 °F - 44.6 °F 87% 30.12 in 5.0 mi ESE 6.9 mph - N/A   Overcast
11:55 AM 48.2 °F - 44.6 °F 87% 30.13 in 4.0 mi ESE 10.4 mph - N/A   Light Drizzle
12:15 PM 48.2 °F - 46.4 °F 93% 30.13 in 1.5 mi East 4.6 mph - 0.06 in Rain Light Rain
12:35 PM 46.4 °F 42.4 °F 46.4 °F 100% 30.13 in 2.0 mi ESE 8.1 mph - 0.07 in Rain Rain
12:55 PM 48.2 °F - 46.4 °F 93% 30.13 in 1.5 mi ESE 9.2 mph - 0.07 in   Drizzle
1:15 PM 48.2 °F - 46.4 °F 93% 30.12 in 2.0 mi East 8.1 mph - 0.01 in Rain Light Rain
1:35 PM 46.4 °F 41.9 °F 46.4 °F 100% 30.12 in 2.0 mi East 9.2 mph - 0.01 in Rain Rain
2:15 PM 48.2 °F - 46.4 °F 93% 30.13 in 7.0 mi East 6.9 mph - N/A   Drizzle
2:35 PM 48.2 °F - 46.4 °F 93% 30.13 in 10.0 mi East 5.8 mph - 0.01 in Rain Light Rain
2:55 PM 48.2 °F - 46.4 °F 93% 30.13 in 10.0 mi East 4.6 mph - 0.01 in   Drizzle
3:15 PM 48.2 °F - 46.4 °F 93% 30.14 in 10.0 mi ESE 9.2 mph - N/A Rain Light Rain
3:35 PM 48.2 °F - 46.4 °F 93% 30.14 in 7.0 mi East 11.5 mph - 0.01 in Rain Light Rain
3:55 PM 46.4 °F 42.4 °F 46.4 °F 100% 30.14 in 2.5 mi East 8.1 mph - 0.02 in Rain Rain
4:15 PM 46.4 °F 42.9 °F 46.4 °F 100% 30.14 in 5.0 mi East 6.9 mph - N/A Rain Light Rain
4:35 PM 46.4 °F 43.5 °F 46.4 °F 100% 30.15 in 10.0 mi East 5.8 mph - N/A Rain Rain
4:55 PM 46.4 °F 42.4 °F 46.4 °F 100% 30.14 in 10.0 mi East 8.1 mph - 0.01 in   Overcast
5:15 PM 48.2 °F - 46.4 °F 93% 30.14 in 10.0 mi East 5.8 mph - N/A   Overcast
5:35 PM 46.4 °F 43.5 °F 46.4 °F 100% 30.14 in 10.0 mi ENE 5.8 mph - N/A   Overcast
6:15 PM 46.4 °F - 46.4 °F 100% 30.15 in 10.0 mi Calm Calm - N/A   Light Drizzle
6:35 PM 48.2 °F - 46.4 °F 93% 30.15 in 7.0 mi East 3.5 mph - N/A Rain Light Rain
6:55 PM 48.2 °F - 46.4 °F 93% 30.14 in 3.0 mi East 3.5 mph - N/A   Overcast
7:15 PM 46.4 °F 42.9 °F 46.4 °F 100% 30.15 in 2.0 mi East 6.9 mph - N/A   Light Drizzle
7:35 PM 46.4 °F 44.3 °F 46.4 °F 100% 30.15 in 2.5 mi East 4.6 mph - N/A   Drizzle
7:55 PM 46.4 °F 44.3 °F 46.4 °F 100% 30.16 in 2.5 mi East 4.6 mph - N/A   Light Drizzle
8:15 PM 46.4 °F 44.3 °F 46.4 °F 100% 30.16 in 5.0 mi East 4.6 mph - N/A   Overcast
8:35 PM 46.4 °F 45.2 °F 46.4 °F 100% 30.17 in 5.0 mi NE 3.5 mph - N/A Rain Light Rain
8:55 PM 46.4 °F - 46.4 °F 100% 30.16 in 5.0 mi Calm Calm - N/A   Light Drizzle
9:15 PM 46.4 °F - 46.4 °F 100% 30.17 in 5.0 mi Calm Calm - N/A   Overcast
9:35 PM 46.4 °F - 46.4 °F 100% 30.18 in 10.0 mi Calm Calm - N/A   Overcast
9:55 PM 48.2 °F - 46.4 °F 93% 30.18 in 3.0 mi ENE 3.5 mph - N/A Rain Light Rain
10:35 PM 46.4 °F 45.2 °F 46.4 °F 100% 30.18 in 5.0 mi NE 3.5 mph - N/A   Overcast
10:55 PM 46.4 °F 45.2 °F 46.4 °F 100% 30.18 in 5.0 mi NNE 3.5 mph - N/A   Overcast
11:15 PM 46.4 °F 45.2 °F 46.4 °F 100% 30.17 in 7.0 mi NE 3.5 mph - N/A   Overcast
11:35 PM 46.4 °F 45.2 °F 46.4 °F 100% 30.16 in 3.0 mi NE 3.5 mph - N/A   Overcast
11:55 PM 46.4 °F - 46.4 °F 100% 30.16 in 3.0 mi Calm Calm - N/A   Light Drizzle